Theta_e
315 316 321 320 320 318 317 320 323 324 324 322 322 323 324 325 325 325 327 330 329 329 332 331 319 313 325 329 321 317 316 315 316 316 317 316 316 318 318 320 320 326 324 324 331
315 315 315 320 319 318 318 319 322 323 324 322 323 323 324 325 325 326 328 329 329 321 322 318 323 319 314 316 317 315 316 316 315 315 315 316 316 317 317 318 323 323 325 325 330
313 315 315 321 319 317 318 318 321 322 323 323 323 323 323 323 319 323 326 328 330 312 313 314 317 316 314 315 315 314 315 315 315 316 316 316 316 316 316 314 321 322 325 327 330
314 314 315 320 319 317 317 317 321 321 322 324 325 322 318 318 315 315 318 327 330 329 322 319 319 318 315 315 316 315 314 316 315 315 315 314 317 314 317 317 319 319 319 323 329
313 314 316 320 318 317 315 317 321 321 323 324 325 322 317 314 314 312 316 319 325 325 324 320 316 314 313 314 316 314 314 314 315 315 316 316 315 314 316 316 317 321 325 324 325
314 315 316 320 317 316 315 318 321 321 322 324 324 319 316 313 314 312 317 319 322 320 313 313 313 314 313 313 314 314 315 313 314 315 315 314 314 315 316 316 316 321 325 325 324
312 314 315 319 317 315 315 319 321 321 322 324 321 317 316 315 311 311 319 320 321 320 313 315 318 316 314 314 312 313 313 312 312 313 314 314 314 312 315 316 317 323 325 327 326
311 314 317 318 317 315 316 319 321 320 323 322 317 315 316 313 311 311 319 319 320 320 316 316 319 319 320 316 314 312 311 312 311 312 312 314 314 314 315 316 318 324 325 326 327
310 313 315 317 315 314 317 320 320 321 319 316 315 313 313 312 311 312 316 311 310 311 313 314 316 315 312 314 316 315 312 310 311 310 310 312 313 313 315 315 317 324 324 323 324
311 312 315 316 315 314 317 320 320 317 316 314 313 312 312 312 311 312 311 310 313 313 312 312 313 313 310 316 324 322 313 310 310 311 310 310 311 310 312 313 316 318 321 321 321
309 313 318 316 315 315 317 320 318 317 314 313 313 311 312 312 311 312 312 311 312 313 311 313 312 313 313 310 311 311 310 311 309 309 311 309 311 311 310 309 311 314 318 320 320
308 316 316 316 315 315 317 319 314 312 313 311 312 310 311 312 311 312 315 314 311 308 310 312 314 311 312 311 311 310 310 309 310 310 310 309 309 308 309 309 311 313 313 315 315
309 314 314 315 315 316 319 318 316 315 310 310 312 310 310 310 310 312 313 310 308 307 310 312 312 312 314 312 311 310 310 309 310 309 309 309 309 308 308 311 311 311 313 312 313
311 315 315 315 316 317 318 316 316 314 308 309 310 310 310 310 309 311 312 310 308 308 307 309 312 312 313 314 311 313 308 309 309 309 310 307 312 306 305 307 308 311 313 314 313
313 313 315 315 316 318 316 314 313 311 313 308 308 309 310 310 309 310 311 310 307 307 306 309 307 313 313 312 309 311 309 310 309 308 308 307 305 307 304 305 305 308 312 314 314
315 315 315 315 317 316 314 313 310 309 311 308 308 308 308 308 308 309 311 310 310 306 307 307 307 309 311 309 309 308 309 308 306 305 308 307 306 306 303 305 306 307 310 313 313
313 315 315 316 315 314 313 310 309 307 306 307 308 308 308 307 307 307 309 307 307 307 308 306 307 307 307 308 308 308 310 309 309 309 309 304 304 310 306 303 305 306 310 309 311
314 314 315 315 314 312 309 308 302 306 307 306 308 308 307 307 307 306 308 310 305 305 305 308 309 306 306 307 308 308 308 309 309 308 307 304 306 307 305 306 307 308 309 309 309
314 315 315 314 314 310 308 310 306 306 306 308 307 308 307 307 306 306 307 310 307 303 307 307 307 306 306 307 307 307 310 307 307 302 309 306 304 305 305 304 307 308 308 309 310
315 314 314 314 313 309 308 307 304 305 306 308 308 306 308 308 307 305 306 308 308 304 305 305 308 307 307 307 307 306 306 309 308 309 309 307 305 306 306 307 305 307 308 309 310
315 314 313 313 310 308 309 306 305 307 308 307 306 305 306 308 305 305 306 306 307 304 305 305 307 308 307 306 306 306 307 307 307 309 310 307 307 303 307 306 306 307 309 310 310
314 313 312 311 310 308 308 305 308 307 307 306 305 305 307 306 306 305 305 306 308 305 306 307 306 306 306 306 306 307 306 308 309 308 306 307 309 304 303 306 306 308 310 311 311
313 311 311 310 310 310 306 306 308 309 309 306 306 306 305 307 308 307 305 307 306 306 307 306 305 303 309 307 307 307 306 306 304 306 308 310 308 303 305 306 308 307 309 311 311
310 311 311 310 309 310 309 307 309 310 309 308 306 305 306 307 307 307 307 308 307 307 308 308 307 306 308 308 307 308 307 306 306 308 306 307 308 306 306 306 308 307 307 310 311
308 311 310 311 309 309 308 307 308 310 310 309 308 307 307 307 307 308 309 309 308 307 308 307 304 305 307 307 306 306 308 306 307 308 308 309 306 307 305 306 308 309 308 308 310
305 311 310 310 308 309 308 306 308 310 309 310 307 306 306 307 307 308 308 308 308 307 307 304 302 304 304 306 307 307 307 308 308 307 307 306 305 305 307 308 309 310 309 308 309
305 309 310 310 307 309 308 306 308 308 309 309 307 308 309 308 307 308 308 308 307 307 307 307 302 305 304 304 306 306 306 306 307 307 307 306 308 304 305 305 308 310 311 311 311
Wind_Speed
44 40 45 46 43 41 36 50 44 34 32 29 26 21 20 19 19 23 28 25 24 20 25 27 15 12 15 12 8 6 3 3 6 6 4 9 5 7 6 15 7 12 7 4 25
40 46 43 48 47 43 37 51 48 39 34 31 27 23 23 20 19 23 26 27 24 20 22 23 25 17 10 13 8 5 4 8 6 5 4 8 7 13 7 10 5 11 11 15 28
30 42 40 50 49 46 41 52 49 42 36 33 30 23 21 21 13 16 22 25 29 26 22 18 18 19 5 9 7 7 5 5 4 6 8 8 10 9 11 4 11 20 20 27 30
32 39 43 50 48 45 41 51 51 44 39 35 32 25 22 22 8 9 20 23 28 30 23 20 13 7 6 5 8 5 7 7 5 2 2 8 13 8 18 7 15 17 19 30 32
35 38 40 48 47 44 36 53 52 45 40 36 34 29 27 20 9 9 17 24 27 30 25 24 22 9 4 8 8 4 2 15 12 4 4 8 9 8 18 8 12 20 28 30 30
36 36 41 52 48 44 38 55 48 48 43 38 35 32 28 6 10 10 16 29 30 32 28 24 17 13 6 3 6 9 8 4 7 4 3 6 4 7 18 11 15 23 29 29 28
40 34 40 53 49 44 44 53 45 46 44 38 35 32 27 15 14 12 19 27 31 33 32 25 10 9 7 2 6 2 6 3 3 3 2 5 1 7 11 16 22 27 28 29 28
33 35 40 53 49 44 48 47 44 44 42 41 37 29 11 11 13 14 22 23 22 25 25 20 16 7 2 3 5 2 3 5 2 5 2 8 8 9 13 19 24 30 30 30 28
31 35 35 52 49 47 48 45 45 43 42 43 35 17 5 16 15 20 27 30 22 19 16 16 15 7 6 5 4 3 4 3 3 6 2 4 7 6 17 20 26 32 31 30 30
30 39 40 53 51 51 48 45 41 40 42 34 25 9 11 24 21 27 30 26 23 18 13 15 8 5 2 8 14 8 4 3 6 3 2 5 7 5 15 23 27 28 33 33 32
33 45 56 53 53 54 52 48 47 21 39 15 23 3 19 27 23 23 33 26 17 13 5 10 5 16 16 6 1 7 8 4 5 5 3 7 7 11 7 17 19 25 30 31 32
41 48 53 55 56 57 56 46 55 36 15 8 20 7 25 29 16 23 28 17 12 5 8 3 17 7 6 2 2 3 5 7 1 2 4 1 10 9 4 12 28 31 30 33 31
45 48 57 56 58 56 57 39 39 49 9 4 26 5 21 24 13 27 31 13 8 6 8 5 4 8 6 4 6 4 5 4 3 2 3 2 6 7 6 19 19 25 29 30 31
50 62 60 57 57 58 44 44 40 40 5 4 7 5 20 17 5 28 29 16 4 9 6 3 4 14 12 16 8 10 6 4 4 4 4 2 9 6 7 9 10 30 30 33 32
52 66 63 66 58 57 50 48 49 27 6 11 7 12 20 20 21 18 31 8 10 6 8 7 10 12 15 8 8 5 5 6 3 3 2 2 1 7 1 7 9 25 39 43 40
65 67 66 61 40 50 49 50 34 4 6 8 13 11 9 6 4 22 27 7 12 6 3 8 5 12 13 9 10 7 5 4 3 3 3 7 7 5 6 8 6 14 35 44 42
66 65 68 55 45 51 52 45 6 5 10 8 8 12 10 5 4 6 15 7 7 8 8 3 3 2 8 6 3 8 11 2 1 2 6 1 4 13 6 7 7 10 16 22 31
70 66 57 43 58 59 56 13 5 7 13 3 9 18 8 8 2 3 14 14 7 4 6 10 8 8 4 6 8 8 7 5 7 5 2 2 7 6 8 6 16 15 8 11 21
70 60 45 42 62 61 42 16 10 16 8 10 13 20 5 7 7 7 12 21 11 10 7 8 6 2 2 2 8 5 9 4 6 2 3 4 6 9 6 9 10 13 15 16 22
66 44 46 58 66 50 17 9 5 6 11 20 10 8 16 18 6 9 14 14 10 9 3 7 5 1 2 2 1 8 10 4 2 4 3 3 5 5 4 12 9 9 19 22 23
45 30 47 64 57 37 19 8 4 8 25 8 7 7 9 15 8 11 17 3 13 9 3 5 5 2 2 6 8 3 3 2 4 4 5 1 6 8 15 7 9 12 19 23 25
37 9 58 70 16 13 18 9 6 8 4 5 6 5 13 17 6 10 14 7 27 15 8 2 5 4 6 2 2 1 7 10 6 8 1 3 9 2 7 5 10 16 20 22 21
35 14 56 65 15 19 9 7 4 7 6 8 6 4 7 12 5 3 7 4 23 16 12 8 1 3 3 3 1 4 4 4 5 3 7 7 7 1 6 5 6 11 20 23 22
17 7 21 44 6 23 20 21 5 2 5 4 7 7 10 10 2 9 6 4 20 12 18 13 4 8 12 5 8 5 5 4 5 3 3 7 4 6 5 5 4 4 14 24 24
8 11 24 18 15 27 23 22 7 8 2 8 2 13 12 6 4 7 5 5 2 10 7 6 6 4 2 2 3 5 10 10 8 17 10 17 9 13 5 6 9 6 11 21 24
10 19 21 18 22 26 25 21 12 5 6 4 10 15 8 9 9 7 8 4 8 1 15 2 3 3 1 2 2 1 7 16 23 16 19 3 7 3 5 6 9 14 17 23 26
8 30 38 27 21 22 27 23 15 13 3 6 14 7 5 5 11 17 6 13 13 10 15 12 7 4 5 1 3 5 10 13 12 14 12 15 15 6 5 9 16 18 22 25 25
Wind_Direction
225 225 210 219 214 214 213 209 204 205 201 201 211 210 213 216 215 212 212 219 204 196 198 206 197 164 177 173 168 165 84 195 204 156 240 166 152 173 167 150 180 181 178 193 170
223 234 239 214 214 215 214 203 203 204 201 198 205 205 208 213 213 218 217 213 194 177 180 191 205 186 165 162 190 150 146 211 194 196 216 196 174 172 158 158 172 173 169 168 173
228 231 232 214 211 211 214 201 202 203 199 198 202 201 200 196 200 233 207 201 190 178 176 168 186 184 149 162 201 169 188 184 232 229 246 202 185 180 161 233 194 178 165 171 177
230 224 227 209 207 207 210 198 199 200 197 196 196 195 194 185 182 190 196 194 188 193 201 197 201 197 152 183 200 127 237 197 201 267 270 188 176 183 177 202 207 193 190 176 184
231 225 228 207 201 200 205 198 199 198 196 197 195 185 184 189 214 187 189 187 183 184 188 187 186 180 189 196 170 159 259 225 249 252 251 180 194 185 199 198 198 184 179 181 189
236 229 219 205 197 196 199 193 198 198 195 194 187 183 189 200 213 194 187 184 184 183 172 171 180 175 142 224 166 199 196 233 250 184 208 192 181 186 208 202 181 182 188 190 195
233 227 223 195 194 194 195 194 195 194 193 190 186 182 187 195 185 189 179 186 186 187 182 179 154 170 146 138 346 133 169 311 224 234 189 146 309 233 204 188 187 187 193 199 200
236 231 222 189 190 192 192 188 190 193 191 187 177 178 185 188 184 182 175 170 175 191 195 194 207 207 116 30 11 178 92 192 289 183 154 156 242 245 210 190 185 192 196 204 207
237 221 216 187 185 187 186 183 185 184 177 169 166 171 200 179 170 170 172 161 159 153 158 168 174 150 141 88 357 315 200 159 314 214 129 160 235 245 212 204 195 196 201 207 214
235 224 209 186 183 181 181 178 181 166 155 156 174 134 205 186 162 168 174 168 164 157 149 166 156 136 145 163 218 213 239 198 183 209 277 186 243 278 207 206 214 207 208 210 215
223 211 191 187 180 178 175 169 155 154 158 170 179 183 165 174 169 170 180 178 174 173 165 181 149 196 185 161 265 184 199 210 198 148 214 218 237 242 210 217 224 222 220 219 221
225 208 185 185 180 179 175 167 162 167 147 141 171 120 156 168 155 166 173 164 176 172 144 143 214 157 149 152 234 243 195 199 338 85 150 114 260 266 233 222 219 222 227 229 229
214 185 183 181 179 175 173 172 166 157 115 103 175 143 167 168 160 166 173 154 125 138 196 176 170 149 211 207 227 213 203 177 154 143 109 85 277 252 239 238 236 237 237 242 240
201 184 183 180 171 170 170 162 167 155 98 155 161 200 159 156 115 173 173 156 138 174 122 227 217 174 196 225 197 225 199 171 139 129 199 141 254 256 235 238 229 236 236 240 239
193 176 180 180 168 174 162 153 153 157 147 153 161 154 168 169 143 183 177 167 149 155 139 214 172 181 210 194 179 203 177 190 172 143 111 168 260 265 316 247 242 242 236 236 238
181 179 178 173 172 166 159 152 150 123 195 167 150 170 146 164 160 155 178 158 163 126 165 203 187 179 190 174 192 155 80 43 63 95 264 199 182 243 202 208 240 242 240 238 236
175 177 177 172 162 156 155 144 142 160 151 173 162 164 157 141 111 149 176 166 160 138 182 145 228 219 153 132 132 170 143 171 237 181 223 79 157 241 257 242 228 253 264 239 229
177 175 171 166 155 155 151 151 131 140 175 166 131 144 154 137 75 161 149 190 225 140 126 171 213 172 188 188 175 192 159 167 188 191 189 90 224 248 233 272 253 253 269 223 205
172 168 165 163 159 160 156 181 186 167 158 129 102 153 148 196 140 145 192 194 186 186 155 161 212 321 189 168 152 186 193 159 101 12 82 203 286 297 249 265 255 243 232 208 197
165 155 159 165 165 164 167 171 141 152 128 143 149 155 177 179 141 177 173 196 196 181 206 187 163 322 232 154 137 181 161 180 22 132 233 280 278 236 266 236 221 219 211 199 195
161 153 163 167 164 162 187 184 145 179 142 142 149 147 168 178 162 183 185 235 185 178 172 143 111 219 176 213 158 136 186 111 126 156 184 194 253 218 228 215 217 219 213 198 196
157 160 163 163 158 183 185 166 147 159 163 125 103 106 166 167 144 174 190 178 181 150 165 161 112 148 206 238 125 332 182 180 183 222 239 147 255 239 236 226 226 218 209 204 206
150 126 165 165 173 186 157 186 158 149 164 153 131 155 141 158 135 181 175 195 173 165 165 178 112 77 4 357 11 214 210 164 111 74 199 197 247 339 286 280 263 221 207 204 204
144 145 156 185 203 174 174 188 140 161 150 128 117 110 121 163 27 174 153 192 193 181 172 136 138 170 203 212 136 195 189 175 142 171 173 232 221 280 265 284 287 247 204 200 202
174 164 161 171 195 178 180 178 155 166 204 170 106 158 151 145 121 155 143 132 92 178 151 136 174 147 80 319 123 186 179 168 190 218 195 235 201 237 218 225 256 246 202 198 203
162 157 171 175 164 171 179 196 167 126 135 185 146 163 158 153 187 167 125 180 172 130 187 180 181 120 22 23 193 167 196 201 211 219 230 97 248 231 215 178 199 214 201 205 208
175 167 162 160 167 171 190 181 176 127 19 134 138 119 117 161 121 151 139 146 156 162 183 184 131 125 222 22 98 308 211 211 219 219 204 219 233 173 205 213 219 218 216 218 214